| time (UTC) | temp F | wind direction | speed knots | gust knots | rain 1hr in | rain 24hr in | rain mn in | humidity % | barometer mb |
| 20260904053036 | 55 | 66 | 0.0 | 0.9 | 0.00 | 0.00 | 0.00 | ||
| 20260904050108 | 56 | 66 | 0.0 | 1.7 | 0.00 | 0.00 | 0.00 | ||
| 20260904043051 | 57 | 65 | 0.0 | 0.9 | 0.00 | 0.00 | 0.00 | ||
| 20260904040104 | 57 | 65 | 0.0 | 1.7 | 0.00 | 0.00 | 0.00 | ||
| 20260904033054 | 57 | 65 | 0.0 | 1.7 | 0.00 | 0.00 | 0.00 | ||
| 20260904030110 | 58 | 0 | 0.0 | 1.7 | 0.00 | 0.00 | 0.00 | ||
| 20260904023048 | 59 | 66 | 0.0 | 1.7 | 0.00 | 0.00 | 0.00 | ||
| 20260904020059 | 60 | 73 | 0.9 | 3.5 | 0.00 | 0.00 | 0.00 | ||
| 20260904013048 | 62 | 61 | 2.6 | 4.3 | 0.00 | 0.00 | 0.00 | ||
| 20260904010122 | 62 | 73 | 3.5 | 5.2 | 0.00 | 0.00 | 0.00 | ||
| 20260904003044 | 63 | 62 | 3.5 | 5.2 | 0.00 | 0.00 | 0.00 | ||
| 20260904000116 | 63 | 58 | 0.9 | 2.6 | 0.00 | 0.00 | 0.00 | ||
| 20260903233101 | 63 | 53 | 1.7 | 6.1 | 0.00 | 0.00 | 0.00 | ||
| 20260903223059 | 63 | 83 | 0.9 | 5.2 | 0.00 | 0.00 | 0.00 | ||
| 20260903213033 | 62 | 63 | 0.9 | 5.2 | 0.00 | 0.00 | 0.00 | ||
| 20260903210107 | 63 | 98 | 1.7 | 7.8 | 0.00 | 0.00 | 0.00 | ||
| 20260903203046 | 63 | 30 | 2.6 | 6.1 | 0.00 | 0.00 | 0.00 | ||
| 20260903200114 | 62 | 54 | 2.6 | 7.0 | 0.00 | 0.00 | 0.00 | ||
| 20260903193036 | 61 | 264 | 0.9 | 7.0 | 0.00 | 0.00 | 0.00 | ||
| 20260903183041 | 59 | 205 | 1.7 | 4.3 | 0.00 | 0.00 | 0.00 | ||
| 20260903173054 | 58 | 83 | 0.9 | 3.5 | 0.00 | 0.00 | 0.00 | ||
| 20260903170106 | 56 | 64 | 1.7 | 5.2 | 0.00 | 0.00 | 0.00 | ||
| 20260903163038 | 56 | 45 | 1.7 | 4.3 | 0.00 | 0.00 | 0.00 | ||
| 20260903153055 | 55 | 52 | 1.7 | 5.2 | 0.00 | 0.00 | 0.00 | ||
| 20260903143104 | 54 | 58 | 0.0 | 1.7 | 0.00 | 0.00 | 0.00 | ||
| 20260903140113 | 54 | 58 | 0.0 | 0.9 | 0.00 | 0.00 | 0.00 | ||
| 20260903133047 | 54 | 73 | 0.0 | 1.7 | 0.00 | 0.00 | 0.00 | ||
| 20260903130120 | 54 | 63 | 2.6 | 3.5 | 0.00 | 0.00 | 0.00 | ||
| 20260903120122 | 55 | 76 | 1.7 | 2.6 | 0.00 | 0.00 | 0.00 | ||
| 20260903113044 | 55 | 80 | 1.7 | 3.5 | 0.00 | 0.00 | 0.00 | ||
| 20260903110109 | 55 | 101 | 0.9 | 3.5 | 0.00 | 0.00 | 0.00 | ||
| 20260903100107 | 55 | 269 | 0.0 | 1.7 | 0.00 | 0.00 | 0.00 | ||
| 20260903083025 | 56 | 87 | 0.0 | 1.7 | 0.00 | 0.00 | 0.00 | ||
| 20260903080100 | 56 | 258 | 0.0 | 1.7 | 0.00 | 0.00 | 0.00 | ||
| 20260903073050 | 56 | 167 | 0.0 | 0.9 | 0.00 | 0.00 | 0.00 | ||
| 20260903070109 | 56 | 268 | 0.0 | 1.7 | 0.00 | 0.00 | 0.00 | ||
| 20260903063040 | 56 | 24 | 0.0 | 0.9 | 0.00 | 0.00 | 0.00 | ||
| 20260903060109 | 57 | 70 | 1.7 | 3.5 | 0.00 | 0.00 | 0.00 |